This is the latest recevied weather packets stored in our database for station/object KQ4UPF. If no packets are shown the sender has not sent any weather packets the latest 10 day(s).
| Time | Temp. | Humidity | Pressure | Rain* | Wind** | Luminosity | Snow |
|---|---|---|---|---|---|---|---|
| 1777698402 | 13.89° C | 58% | 1015.4 hPa | 0 mm | - | 0 W/m² | - |
| 1777698099 | 13.33° C | 64% | 1015.3 hPa | 0 mm | - | 0 W/m² | - |
| 1777697796 | 13.33° C | 68% | 1015.5 hPa | 0 mm | - | 0 W/m² | - |
| 1777697494 | 13.33° C | 72% | 1015.2 hPa | 0 mm | - | 0 W/m² | - |
| 1777697189 | 13.33° C | 72% | 1015.1 hPa | 0 mm | - | 0 W/m² | - |
| 1777696886 | 13.89° C | 73% | 1015.3 hPa | 0 mm | - | 0 W/m² | - |
| 1777696585 | 13.89° C | 72% | 1015.4 hPa | 0 mm | - | 0 W/m² | - |
| 1777696281 | 13.33° C | 70% | 1015.4 hPa | 0 mm | - | 0 W/m² | - |
| 1777695980 | 13.33° C | 73% | 1015.4 hPa | 0 mm | - | 0 W/m² | - |
| 1777695678 | 13.33° C | 76% | 1015.4 hPa | 0 mm | - | 0 W/m² | - |
| 1777695376 | 13.33° C | 81% | 1015.3 hPa | 0 mm | - | 0 W/m² | - |
| 1777695073 | 13.33° C | 81% | 1015.5 hPa | 0 mm | - | 0 W/m² | - |
| 1777694770 | 13.33° C | 80% | 1015.4 hPa | 0 mm | - | 0 W/m² | - |
| 1777694467 | 13.33° C | 82% | 1015.3 hPa | 0 mm | - | 0 W/m² | - |
| 1777694163 | 13.89° C | 80% | 1015.4 hPa | 0 mm | - | 0 W/m² | - |
| 1777693860 | 13.89° C | 79% | 1015.3 hPa | 0 mm | - | 0 W/m² | - |
| 1777693558 | 13.89° C | 80% | 1015.4 hPa | 0 mm | - | 0 W/m² | - |
| 1777693256 | 13.89° C | 80% | 1015.4 hPa | 0 mm | - | 0 W/m² | - |
| 1777692954 | 13.89° C | 82% | 1015.3 hPa | 0 mm | - | 0 W/m² | - |
| 1777692651 | 13.89° C | 83% | 1015.7 hPa | 0 mm | - | 0 W/m² | - |
| 1777692347 | 13.89° C | 84% | 1015.5 hPa | 0 mm | - | 0 W/m² | - |
| 1777692044 | 13.33° C | 85% | 1015.8 hPa | 0 mm | - | 0 W/m² | - |
| 1777691742 | 13.33° C | 86% | 1016 hPa | 0 mm | - | 0 W/m² | - |
| 1777691439 | 13.33° C | 88% | 1015.5 hPa | 0 mm | - | 0 W/m² | - |
| 1777691138 | 12.78° C | 91% | 1015.8 hPa | 0 mm | - | 0 W/m² | - |
* Rain latest hour (hover to see other rain measurements)
** Current wind speed in m/s (hover to see current wind gust speed)